Wind_Speed
5 4 4 4 5 5 6 5 5 6 6 5 5 4 6 8 9 9 9 9 9 10 9 9 7 6 5 5 4 5 6 6 8 10 8 1 6 5 3 5 9 11 10 9 12 13 8 8 9 10 10 9 8 9 10 11 8 7 6 5 7 5 5 9 2 11 9 10 12 13 14 13 11 9 8 11 12 14 16 16 15 15 13 11 9 7 9 11
3 3 3 4 5 5 5 5 6 6 4 4 4 6 8 9 9 9 9 9 9 9 9 9 7 6 5 5 5 5 7 9 14 10 2 3 3 1 1 4 10 10 10 11 13 13 8 7 9 12 10 7 8 9 9 10 8 7 5 6 4 1 8 9 9 16 13 14 11 12 13 13 11 8 7 7 10 14 15 12 13 15 11 10 10 10 11 12
2 2 3 4 5 5 5 6 5 5 4 4 6 8 8 8 8 8 8 8 8 9 9 8 6 5 5 5 5 5 8 12 11 2 6 2 1 2 3 6 9 10 13 13 17 19 6 6 11 13 10 8 8 8 9 8 7 7 5 4 2 2 10 4 14 17 15 16 14 12 11 13 12 8 6 7 10 14 12 8 10 12 9 9 10 10 9 10
2 2 4 5 5 6 5 5 6 5 4 6 8 8 8 8 8 8 8 8 8 8 8 7 6 5 5 5 3 4 8 10 3 7 5 1 1 3 5 6 10 12 14 15 23 21 5 8 11 12 9 7 7 7 9 8 6 7 3 2 2 10 9 11 14 15 16 14 15 11 10 13 12 10 7 6 9 11 11 10 12 11 9 9 9 8 8 10
2 3 4 5 5 6 5 6 6 4 5 7 8 8 9 9 8 8 7 7 7 7 7 7 6 6 6 6 3 3 7 4 5 6 4 2 2 3 5 7 9 10 12 17 23 12 6 9 10 11 10 6 6 6 9 10 7 5 4 4 8 12 6 17 15 17 18 12 15 14 13 11 10 14 14 12 11 8 9 12 13 11 10 9 9 8 9 11
2 3 4 5 5 6 7 7 5 5 7 7 8 10 11 11 10 8 7 7 6 6 7 8 7 7 7 6 3 3 6 2 6 4 4 2 4 4 5 6 7 9 12 18 17 7 5 9 8 9 7 5 7 8 9 11 8 5 6 7 9 6 2 16 17 19 17 13 16 15 13 12 13 14 14 18 15 6 7 12 12 11 11 11 10 9 9 10
2 3 4 5 6 6 7 6 6 6 7 8 10 12 13 11 11 9 8 7 6 6 7 7 7 6 5 5 3 6 5 5 8 5 3 3 3 5 5 6 8 8 12 18 15 8 7 9 7 7 6 6 9 12 10 12 10 9 7 8 5 6 15 21 18 17 16 16 18 15 15 14 15 12 10 16 12 2 4 9 11 12 12 12 10 9 10 10
2 3 4 5 6 7 7 6 7 7 8 11 13 13 11 10 10 9 8 8 7 6 6 6 6 5 3 2 5 5 2 8 9 5 2 2 2 4 4 7 11 11 16 17 11 5 7 10 4 4 3 3 7 9 7 10 11 9 6 9 6 14 19 21 19 17 16 13 16 19 20 17 15 13 10 11 5 2 4 8 10 12 12 10 9 10 11 10
2 4 5 6 6 7 7 7 8 9 11 13 13 10 9 9 9 9 8 8 7 7 6 6 6 5 3 4 8 2 7 8 7 4 2 2 3 5 6 10 12 14 17 13 8 6 5 4 1 4 4 1 7 7 6 8 6 3 5 9 12 16 15 17 19 17 13 9 14 20 20 16 13 12 10 8 3 8 3 9 8 10 11 9 8 8 9 10
4 5 5 6 7 8 8 9 10 12 13 12 9 7 7 7 7 7 7 7 6 6 6 6 6 6 5 7 9 1 6 3 4 4 4 4 5 6 10 11 10 11 13 10 6 8 2 1 5 5 6 3 7 8 9 8 2 5 6 10 16 16 12 15 18 17 11 7 14 19 17 14 11 9 7 4 5 9 4 9 8 10 11 10 10 8 7 9
4 5 6 6 7 9 9 10 12 13 12 9 7 7 6 5 5 5 5 5 5 6 7 6 6 6 6 10 6 5 5 5 3 5 5 5 7 7 9 10 10 9 12 12 3 5 4 3 6 2 2 2 5 8 9 4 6 3 6 11 17 16 13 14 16 18 12 7 14 20 18 14 9 9 8 7 8 6 4 8 9 11 10 10 11 8 5 7
4 5 6 7 8 9 10 12 13 13 10 6 7 7 5 5 3 3 3 4 5 7 8 7 7 7 7 9 1 8 5 5 2 4 4 5 7 7 9 8 9 9 10 13 6 4 6 5 5 5 1 1 2 3 4 7 8 6 8 8 15 14 12 13 13 15 13 10 14 16 15 11 7 8 5 3 5 4 5 6 9 9 8 9 9 8 6 7
4 5 6 8 9 10 11 13 13 12 7 4 7 6 5 5 2 1 1 3 5 8 8 8 7 5 7 4 5 6 3 3 2 4 4 6 7 8 9 7 7 8 7 10 8 5 5 6 11 7 4 5 2 3 1 7 9 10 9 5 9 9 7 11 13 15 15 12 12 8 8 4 5 4 1 3 4 5 7 7 6 7 8 9 9 8 8 10
4 5 7 8 9 10 12 13 13 11 5 3 6 5 6 6 2 2 2 3 5 7 8 9 6 4 6 2 6 5 3 3 3 5 7 7 8 8 7 5 6 6 5 7 8 6 5 8 11 2 4 3 2 4 4 6 5 6 8 6 5 4 4 9 11 13 15 14 12 6 8 2 4 2 2 2 7 5 11 8 4 7 9 8 8 8 8 8
4 6 7 8 9 10 12 13 12 9 3 3 5 4 5 5 2 2 2 3 5 7 8 11 7 6 5 3 6 4 6 6 6 7 7 6 9 9 4 2 4 3 4 6 5 5 5 7 8 2 1 5 2 3 4 2 3 4 4 5 5 6 5 7 9 9 10 10 10 4 7 4 3 5 3 4 8 6 7 8 5 9 9 7 8 9 7 4
4 6 7 8 9 10 12 12 12 9 2 2 4 3 2 3 2 0 2 3 6 6 6 8 7 8 4 3 6 5 9 9 5 5 4 5 9 10 5 1 3 2 3 4 3 4 6 6 6 6 3 1 2 2 3 3 2 2 2 4 3 7 5 4 9 10 8 5 3 3 6 5 2 5 7 7 5 6 2 8 7 8 9 8 7 7 8 7
4 5 6 8 9 11 12 12 12 9 2 2 4 3 0 1 0 2 3 6 7 5 7 10 8 7 3 2 6 5 6 4 0 2 3 4 7 8 7 4 4 3 2 3 3 5 6 3 4 7 7 6 3 4 5 4 4 3 3 5 6 1 2 3 8 9 7 7 8 12 11 11 7 3 4 2 2 5 2 4 5 5 7 8 6 5 7 7
4 5 6 8 9 10 12 12 11 8 4 3 3 2 2 3 4 6 7 5 4 6 10 12 10 5 1 4 3 2 2 3 2 2 3 2 3 4 7 7 5 4 3 3 3 4 2 3 7 5 5 6 4 5 5 3 6 8 3 3 7 4 3 2 4 6 5 8 14 16 12 12 13 11 9 8 6 1 3 2 1 5 8 8 7 6 8 8
3 5 6 8 9 10 11 12 11 8 7 4 3 5 4 4 6 8 10 6 4 5 4 5 7 1 3 5 5 4 5 2 3 4 2 2 3 5 8 6 5 5 4 1 2 2 4 5 6 3 1 4 3 4 2 8 9 6 4 1 3 2 6 8 5 2 3 5 10 14 10 10 12 11 10 10 10 7 5 3 1 4 6 7 7 7 8 8
3 5 6 8 9 9 10 11 11 9 8 5 3 5 4 2 4 4 7 9 5 4 4 2 1 4 3 2 3 3 3 2 3 2 3 0 2 5 6 4 3 4 4 3 3 2 7 3 4 3 2 6 7 7 5 4 10 6 3 3 3 2 5 8 7 3 2 3 9 14 12 11 11 9 7 9 10 9 7 5 4 4 5 6 7 8 8 8
3 5 6 8 8 9 9 10 10 9 9 7 3 5 2 3 3 3 3 5 1 4 3 3 4 5 5 5 4 1 4 2 3 4 2 1 4 4 1 2 4 4 4 5 3 7 4 2 2 7 8 8 6 6 5 11 8 6 5 6 3 1 4 2 7 7 4 2 9 12 12 12 12 10 4 5 8 7 5 5 5 7 8 5 6 9 8 8
3 4 6 8 7 8 9 9 9 9 10 9 6 4 5 7 4 6 8 3 2 3 3 1 3 5 4 2 1 3 6 3 4 5 2 3 6 4 0 2 5 2 2 3 4 5 3 3 7 8 6 4 2 2 7 11 3 3 3 4 4 4 6 6 7 5 3 2 5 8 11 9 10 11 6 4 6 6 6 6 5 6 8 6 6 8 8 7
3 4 6 7 7 7 8 8 7 8 9 8 3 3 6 7 7 6 7 6 2 4 3 2 1 5 2 2 1 7 8 2 3 7 6 8 8 3 3 4 3 4 3 2 3 1 2 6 7 4 5 5 3 4 8 9 3 1 3 1 3 5 6 6 4 2 2 2 6 9 11 7 5 8 7 5 6 6 6 5 4 3 6 8 6 6 6 7
2 4 6 7 7 8 10 9 8 8 8 4 5 7 6 6 8 8 6 6 3 0 2 4 4 4 3 2 2 8 3 3 4 6 6 9 8 4 4 3 3 3 2 4 4 4 5 8 7 3 6 8 6 4 5 7 4 2 4 3 5 7 5 4 3 4 4 3 7 9 9 5 5 6 3 2 4 6 5 6 5 3 5 8 7 6 6 6
2 4 6 7 8 8 12 12 7 4 4 0 7 7 6 7 8 8 6 5 2 3 3 2 1 3 3 2 6 5 3 3 2 6 5 7 8 7 4 2 3 4 4 5 5 5 8 9 8 5 7 6 5 3 7 10 2 2 3 2 7 9 6 6 4 5 5 3 7 8 4 3 5 5 3 1 4 6 5 5 5 4 7 8 6 6 6 6
3 4 5 7 8 10 12 9 3 4 4 3 7 6 7 7 7 6 4 5 1 3 4 3 1 1 2 3 5 4 1 2 5 5 5 5 6 8 5 1 1 4 7 6 5 4 7 9 10 8 7 4 5 4 6 7 3 2 2 0 9 10 6 7 7 5 3 2 7 7 1 2 2 4 6 5 5 6 6 4 3 2 4 6 6 5 5 6
4 4 5 6 7 10 9 7 8 7 2 6 6 6 7 7 6 5 4 4 1 1 1 2 2 1 2 2 4 4 2 3 3 1 4 7 5 4 4 4 3 5 4 3 2 4 8 9 10 10 7 6 6 5 6 5 4 4 1 3 10 10 7 7 6 5 1 3 6 5 3 5 2 2 8 9 7 7 7 6 4 2 3 5 6 6 5 7
5 4 5 5 5 8 9 11 14 10 4 7 6 6 8 7 5 3 4 1 3 1 1 4 2 1 2 3 3 3 5 5 5 3 5 3 3 4 4 5 7 6 6 6 2 5 8 9 10 10 8 7 6 5 7 8 6 5 5 7 9 7 8 5 4 3 1 4 5 7 6 4 3 4 7 8 8 9 9 8 7 5 4 4 5 5 6 8
5 5 4 4 4 7 9 12 13 8 8 7 6 7 7 6 4 1 3 1 1 1 1 2 2 2 4 7 1 5 5 3 4 4 2 2 1 6 4 6 4 3 9 8 6 8 6 7 8 8 8 8 7 7 8 10 8 7 10 11 9 7 8 6 2 0 2 2 3 6 7 3 3 6 6 6 7 8 8 9 8 8 7 6 6 6 7 8
6 5 4 3 4 6 10 11 9 5 8 7 8 10 8 5 3 2 2 1 1 2 1 1 1 2 5 5 3 4 2 3 4 1 1 4 2 4 1 2 4 2 7 5 7 5 5 7 5 6 6 4 8 10 9 11 9 9 12 11 9 7 5 4 2 2 2 1 3 5 4 2 3 5 5 5 7 7 7 7 8 8 9 8 7 8 7 6
7 6 5 5 5 7 9 7 4 6 8 10 12 11 6 2 1 3 2 1 1 0 2 1 1 1 3 2 5 3 2 5 5 4 1 5 3 2 2 2 2 3 2 2 5 4 5 7 5 5 4 4 6 11 8 9 8 7 7 6 5 5 3 2 2 2 1 2 5 5 3 3 2 4 5 6 9 10 8 8 8 8 8 7 5 5 6 5
8 7 6 7 7 9 9 7 9 10 10 12 12 7 2 1 2 4 0 2 3 2 2 2 4 3 4 2 3 5 4 4 4 5 4 2 1 3 3 3 3 2 0 1 3 5 4 5 3 4 3 6 5 5 7 7 5 4 4 4 3 2 1 2 2 2 2 3 7 7 7 3 2 3 6 9 10 9 7 7 8 8 7 7 6 4 3 5
9 8 7 7 9 10 10 10 11 11 12 12 9 3 1 1 3 2 1 2 1 1 1 2 3 5 5 4 3 5 2 4 4 2 2 3 2 4 4 4 5 4 3 3 1 2 4 6 4 3 3 5 9 2 3 4 3 4 4 4 3 0 1 2 2 2 3 4 8 10 8 2 1 4 7 10 10 8 7 8 6 5 3 4 8 5 1 6
8 8 8 8 10 11 11 11 10 10 11 10 7 2 1 4 2 1 2 4 3 3 2 0 1 2 3 3 5 3 0 4 5 3 1 2 3 5 5 4 6 7 5 2 1 1 0 5 6 6 3 4 7 3 2 3 2 2 3 2 2 2 1 1 1 1 1 3 9 12 7 2 3 5 6 9 10 8 7 7 6 5 2 2 4 3 5 8
8 8 8 8 10 11 10 10 8 8 9 7 5 2 2 4 3 2 2 5 3 2 3 1 6 3 2 3 6 4 3 3 2 3 5 5 5 6 5 5 7 8 6 4 2 1 2 6 6 5 5 5 4 2 5 5 2 1 2 2 1 2 2 1 3 1 1 2 6 6 3 3 5 6 7 8 9 9 8 7 8 8 6 3 3 5 7 8
7 7 7 8 10 10 8 8 7 5 6 6 4 2 2 4 2 4 4 5 4 4 2 2 3 3 2 3 5 6 3 2 1 1 4 6 7 7 6 5 6 8 6 5 4 2 3 5 5 4 5 6 3 3 4 4 3 3 2 2 2 2 4 1 3 1 2 1 4 4 5 6 6 7 8 9 10 10 9 8 8 8 6 3 5 7 7 8
8 7 7 10 11 8 7 6 5 5 5 5 4 4 4 2 3 4 3 4 3 4 6 1 3 5 3 3 4 4 2 1 2 0 3 4 4 7 7 5 5 7 7 5 4 3 3 2 4 3 4 7 3 4 2 3 5 4 3 4 3 1 1 1 2 1 1 1 2 4 7 8 6 5 8 11 11 10 8 7 7 9 3 1 4 3 3 7
8 7 8 9 8 7 6 4 4 6 5 5 5 7 5 2 5 4 3 4 2 3 6 3 3 4 5 4 4 5 5 2 1 3 4 2 2 6 7 5 6 6 5 7 5 2 3 1 4 3 2 4 3 4 3 2 1 3 3 3 3 1 1 1 1 1 2 1 2 4 7 5 2 3 7 10 10 9 7 5 6 6 3 4 5 3 3 7
9 7 6 6 6 6 5 3 4 5 5 6 6 4 1 3 5 4 4 3 3 4 4 4 3 3 4 4 4 6 7 5 6 4 3 3 3 5 6 4 5 5 3 6 5 3 4 2 2 3 3 3 2 2 3 1 2 1 2 0 2 3 3 3 1 2 3 2 1 3 5 2 1 4 6 8 9 8 6 3 3 3 2 2 2 4 8 8
8 5 5 8 7 6 4 3 5 6 5 5 5 1 2 3 5 5 4 3 2 4 4 4 2 2 4 4 4 5 5 6 7 4 4 5 3 5 7 5 5 4 3 4 3 3 4 4 1 4 4 2 1 5 6 5 4 4 3 3 4 3 2 2 1 2 3 2 2 2 4 3 3 3 3 6 7 6 4 3 3 2 1 1 3 7 7 5
8 5 4 8 8 7 5 4 5 5 5 5 4 0 2 3 4 6 2 3 2 2 4 6 5 4 4 4 4 5 5 6 7 6 5 6 6 5 6 5 5 6 6 4 1 4 4 5 2 4 4 3 5 6 5 4 5 6 5 6 6 5 4 2 2 3 3 2 3 2 4 5 5 3 4 6 4 4 3 2 2 2 1 2 4 6 5 4
7 3 5 8 9 8 6 4 5 6 5 3 1 4 4 1 2 6 5 2 2 2 2 3 6 6 5 5 5 6 6 6 7 6 6 8 9 6 4 4 5 7 7 3 4 6 3 4 3 3 5 6 7 6 4 3 2 3 5 6 6 6 5 4 4 5 4 4 3 0 5 6 5 6 4 5 3 4 4 3 1 1 1 2 3 5 5 1
5 2 7 8 8 8 5 4 6 6 3 1 3 5 3 2 3 5 4 2 3 2 1 3 5 5 5 5 5 5 5 5 5 6 7 8 8 7 6 6 7 8 6 4 5 5 3 3 3 1 4 6 7 6 5 3 1 2 6 6 6 5 5 5 5 5 4 5 4 2 3 5 3 5 4 5 5 4 3 3 1 1 2 3 2 1 4 3
4 3 5 8 8 7 5 4 5 4 2 3 3 4 2 1 1 4 3 3 4 2 3 5 5 6 4 3 5 6 5 4 5 7 8 7 6 6 6 7 8 7 5 4 4 4 3 4 5 3 2 4 4 5 5 3 2 4 5 5 6 7 6 6 5 5 2 3 5 3 3 3 1 2 2 1 4 6 4 2 1 1 2 1 2 2 1 3
3 3 4 7 8 5 5 5 6 2 4 4 4 2 2 2 4 3 6 6 5 3 3 3 5 5 2 1 3 7 6 4 3 3 6 7 6 4 6 8 8 7 6 5 6 5 3 4 5 5 4 3 2 3 2 2 3 4 5 7 8 8 8 7 5 3 2 4 6 5 4 4 4 5 2 1 3 5 4 3 1 1 2 2 1 1 1 1
3 4 4 5 6 5 6 7 6 2 5 4 4 3 4 4 3 5 6 6 5 4 3 3 4 4 3 3 4 6 7 7 4 3 6 8 6 4 6 9 9 8 6 4 5 5 2 4 5 6 6 6 5 5 5 6 4 4 5 7 7 8 9 8 5 5 6 5 6 7 7 3 5 6 3 2 3 1 1 3 3 3 2 1 2 1 0 1
3 3 5 5 5 5 6 5 2 3 5 5 4 4 5 6 5 3 1 3 6 5 4 4 3 3 5 5 4 5 7 8 7 6 5 5 6 5 5 8 10 6 2 2 3 4 2 4 5 5 6 5 5 5 5 6 6 6 5 5 6 7 8 8 7 7 8 5 5 7 8 4 2 5 6 5 3 1 2 2 3 3 3 2 2 2 3 3
3 2 4 4 4 5 5 5 3 4 7 6 3 4 6 6 6 3 2 5 8 4 2 2 2 4 5 3 3 4 6 6 7 6 5 4 4 4 5 7 7 5 4 1 3 3 2 4 4 3 4 4 3 4 4 4 4 3 2 4 5 6 7 7 7 7 7 5 5 5 5 5 5 4 6 8 6 3 3 3 2 3 5 5 4 4 5 4
2 2 4 2 2 1 1 2 4 6 6 4 3 4 6 6 7 5 4 6 5 3 3 2 3 5 4 4 3 3 4 5 5 4 6 6 4 2 2 5 5 5 3 5 5 3 3 3 3 2 2 3 4 4 2 2 1 1 0 3 3 5 6 4 4 6 5 3 3 4 4 4 6 6 6 7 6 5 6 4 3 3 3 4 5 5 5 5
3 2 2 3 2 1 4 4 3 5 4 2 2 5 6 6 7 5 6 6 4 3 3 3 5 6 3 5 6 6 7 5 3 3 4 4 4 4 3 2 2 5 6 3 2 2 2 2 0 3 2 4 5 3 1 1 2 2 2 2 3 3 3 2 4 6 5 4 3 5 4 3 4 5 4 2 1 2 4 3 4 5 4 5 6 5 5 5
6 7 3 2 3 3 3 3 3 4 4 3 4 5 6 6 6 5 5 5 4 4 3 4 7 6 2 3 6 7 6 4 3 4 2 1 2 3 3 4 4 2 5 3 1 2 2 1 2 5 3 3 5 2 1 1 2 2 2 1 1 3 4 3 3 3 3 4 4 4 3 4 4 3 2 2 2 1 2 2 2 4 4 4 3 3 3 2
8 7 5 2 2 3 3 4 5 5 4 4 5 5 6 7 7 6 4 3 3 3 2 5 7 3 2 4 5 5 4 4 5 4 1 2 1 1 2 3 4 4 4 3 2 2 2 3 2 3 3 2 6 3 1 3 3 1 2 4 4 6 6 4 4 4 4 3 4 4 4 5 4 4 3 4 4 3 4 3 3 5 6 5 4 5 5 4
Wind_Direction
335 339 338 327 319 315 316 319 329 335 333 325 312 335 357 1 352 343 340 335 339 338 337 341 338 334 317 297 294 302 299 302 298 260 231 331 52 82 165 192 203 204 223 246 258 251 197 197 206 185 202 188 207 229 198 211 220 216 237 246 253 271 284 268 63 87 110 83 56 58 59 65 74 70 72 78 79 84 78 70 70 67 64 77 100 109 87 78
342 348 339 323 321 320 323 331 336 331 313 308 329 1 7 357 345 337 336 337 342 339 344 348 343 334 308 306 319 318 324 297 276 265 162 79 76 78 226 197 211 212 235 257 266 249 188 188 193 182 203 185 199 214 188 202 223 228 233 240 250 355 284 288 78 90 94 90 68 53 56 59 73 72 55 63 69 74 72 67 74 73 68 76 76 63 57 69
356 349 332 324 327 328 338 342 327 302 295 335 3 9 0 345 335 330 334 341 344 345 351 352 344 328 304 309 320 332 323 292 278 3 69 63 170 206 204 212 216 219 242 253 270 269 238 175 182 191 202 182 201 197 180 192 207 223 235 258 354 302 266 354 81 97 90 94 86 61 56 54 57 62 68 80 69 68 78 90 84 78 76 70 66 71 69 64
357 335 327 328 335 342 348 326 299 293 329 7 11 0 341 325 322 328 338 344 350 357 355 351 341 315 302 299 316 351 303 287 352 69 64 339 210 205 196 211 219 229 248 259 274 273 209 165 181 204 214 191 201 182 185 192 191 199 192 278 257 245 221 95 84 101 97 98 97 85 72 56 43 40 46 86 77 65 81 100 98 97 95 85 85 90 88 77
341 324 329 339 347 348 330 303 299 326 4 12 0 338 316 307 313 328 344 352 358 1 355 349 338 325 320 304 325 349 291 299 80 85 64 69 161 182 188 203 220 235 252 269 278 269 173 197 197 218 227 189 180 175 199 198 205 191 140 226 220 242 204 107 90 90 96 98 93 87 81 71 56 43 34 56 68 54 79 98 101 107 106 98 100 90 81 78
317 323 340 352 350 335 312 305 325 356 8 357 335 315 303 303 312 328 346 359 4 2 360 356 349 348 338 323 339 279 283 58 113 112 79 121 139 149 179 190 220 241 258 277 278 246 208 224 209 233 220 158 174 183 199 185 207 221 143 207 217 249 49 96 92 87 94 94 81 77 83 83 71 55 39 56 65 41 68 102 104 99 96 92 92 90 84 81
313 337 351 354 341 323 312 323 349 357 351 331 314 305 304 310 317 329 347 359 8 4 3 2 1 2 350 346 318 250 260 89 112 111 112 175 144 163 189 197 231 252 260 272 267 231 233 231 217 232 190 163 189 181 186 168 192 236 164 182 198 78 72 83 87 87 89 92 89 85 86 81 74 68 47 57 70 99 102 103 100 88 86 89 90 93 92 90
327 353 355 348 332 319 320 338 351 341 326 312 304 305 314 326 329 334 345 356 4 4 1 357 1 354 344 335 278 244 112 91 112 126 170 193 187 208 227 234 239 246 257 269 274 257 257 251 213 206 214 158 171 162 184 181 192 233 168 157 122 79 86 91 91 90 89 96 99 93 86 81 80 78 62 56 50 238 136 99 92 91 88 88 92 98 100 99
342 1 352 341 327 321 332 345 341 325 313 304 302 316 337 346 343 341 346 354 357 356 349 337 347 339 317 274 268 261 82 85 114 151 214 210 236 242 250 259 248 243 260 271 277 290 265 267 52 209 262 87 152 154 196 220 206 197 143 142 109 88 97 106 106 99 91 100 100 92 88 86 91 88 72 62 332 276 143 100 99 104 99 94 86 84 92 97
349 3 348 336 327 332 345 343 330 318 310 303 312 342 360 4 358 351 348 351 348 341 331 326 337 327 289 260 269 67 99 120 137 174 210 221 242 249 248 265 272 267 285 283 276 315 310 44 335 238 214 186 162 159 199 228 145 120 147 138 114 106 110 108 107 101 93 107 106 97 90 88 101 107 88 105 233 255 160 119 123 110 101 95 83 64 58 69
356 3 345 333 334 345 349 338 326 316 310 310 342 9 21 26 13 1 349 340 331 318 317 319 327 323 279 264 282 92 150 205 165 183 204 233 244 258 266 275 290 299 309 305 350 7 332 14 347 306 181 201 160 167 205 187 80 116 183 140 120 118 120 115 114 117 122 126 105 95 84 75 83 97 102 155 201 234 167 127 112 103 100 98 93 86 68 71
3 360 339 336 347 352 344 335 323 315 313 328 12 30 43 45 30 11 341 320 314 308 316 320 329 334 286 270 348 101 176 211 187 221 208 238 251 260 275 281 292 304 313 319 15 41 331 357 309 290 346 285 198 198 197 136 127 198 204 138 120 119 124 133 136 133 132 133 118 94 69 48 43 79 86 172 201 220 177 116 94 93 95 95 87 81 60 53
3 346 339 348 353 349 340 331 320 315 316 354 30 46 54 46 46 44 292 294 298 301 309 315 331 319 280 298 89 118 214 226 198 261 249 249 265 262 266 277 290 298 302 314 341 347 320 301 285 276 184 216 224 57 110 164 169 185 179 139 124 115 126 146 146 136 127 144 152 102 66 20 356 63 98 274 270 219 148 106 111 109 90 82 70 64 47 30
348 342 349 354 349 343 335 327 322 321 319 25 44 59 53 38 58 146 243 270 283 297 306 308 320 282 264 73 108 163 225 253 219 242 249 245 263 261 248 252 266 282 298 297 310 314 301 294 294 257 165 287 54 117 205 195 180 185 169 167 156 123 149 148 140 139 136 166 180 106 94 169 290 296 239 298 297 238 135 118 144 110 88 86 82 80 61 33
340 350 352 348 343 335 327 328 332 330 325 58 55 65 51 38 71 148 240 266 280 293 308 302 283 245 260 115 128 170 191 225 239 229 237 234 254 266 228 211 280 292 304 293 297 305 297 293 293 264 80 9 35 193 244 200 185 217 189 203 179 133 169 147 112 111 119 170 199 129 106 136 247 271 309 13 340 317 118 119 133 108 105 115 110 114 112 140
342 351 347 340 335 326 325 334 341 341 353 87 63 69 56 37 62 199 253 261 274 284 300 292 236 215 286 72 130 166 194 211 230 216 232 245 263 299 333 332 304 268 273 294 301 291 267 267 304 336 355 327 226 185 359 341 251 266 14 286 230 133 164 157 112 100 101 156 209 97 118 123 217 295 346 19 357 310 141 119 120 115 117 115 104 115 125 139
342 346 337 332 326 322 327 337 347 351 11 90 66 74 63 347 186 228 245 246 261 271 271 281 263 229 266 95 137 163 189 182 191 218 208 239 263 307 313 276 263 231 241 259 259 264 246 256 351 358 353 334 306 97 56 336 300 312 17 342 317 123 167 170 126 113 119 136 96 80 99 116 131 134 62 67 243 275 279 112 119 121 113 110 106 101 93 84
338 336 327 326 321 320 328 337 348 356 9 56 55 19 326 290 264 255 259 252 260 271 264 264 268 269 201 159 147 88 78 79 43 233 189 199 232 271 280 284 289 261 232 215 244 267 226 37 11 5 4 326 305 91 94 254 281 304 310 339 320 319 2 23 110 110 132 131 103 89 92 111 123 136 145 154 168 233 308 294 134 121 117 118 122 109 96 89
326 326 322 323 316 319 331 336 342 354 7 31 27 351 328 290 279 261 248 223 205 260 283 227 215 190 96 133 111 76 52 69 194 192 168 191 197 221 249 269 289 267 255 213 246 296 72 53 338 303 211 272 314 58 122 205 218 269 269 223 330 351 17 352 343 75 164 153 110 104 108 121 124 135 151 154 155 158 181 212 82 107 115 116 113 96 91 87
318 319 317 316 313 323 332 334 337 347 356 7 7 318 289 261 255 241 228 219 229 294 349 347 264 78 95 116 95 143 171 211 202 108 65 28 240 242 239 238 274 267 266 253 228 54 77 116 258 287 337 346 3 345 345 128 167 197 192 114 50 67 38 346 321 352 225 177 107 109 120 128 124 119 131 144 147 149 151 137 124 130 102 91 97 91 88 84
309 310 313 312 315 325 329 334 332 335 339 335 303 268 324 24 285 331 319 227 212 333 10 18 350 55 48 353 6 196 209 190 74 70 92 187 262 271 291 276 268 256 273 285 3 38 31 235 353 17 2 358 0 321 21 84 134 176 153 128 113 127 74 331 290 325 323 104 99 117 123 116 115 113 119 134 127 122 108 86 96 109 93 84 100 98 94 90
295 305 309 307 316 325 327 333 328 329 329 309 269 256 27 29 332 337 323 279 120 255 225 168 217 109 63 303 4 309 264 219 83 70 72 281 269 263 333 292 279 284 301 297 46 39 298 356 35 24 358 337 335 349 67 78 109 170 141 144 151 159 143 186 237 290 324 101 114 127 112 99 107 114 120 116 106 96 82 77 78 101 108 113 113 107 108 106
285 300 300 304 317 319 316 323 323 319 305 288 294 21 25 11 335 332 302 280 235 234 236 298 274 94 70 212 114 304 285 256 16 43 35 308 292 290 262 275 328 343 336 346 60 98 270 25 19 3 3 351 10 51 72 68 24 104 115 174 141 144 160 180 192 208 232 159 134 115 100 101 87 84 92 96 99 92 88 101 97 105 112 103 93 91 100 102
271 290 291 304 309 310 312 311 311 309 283 265 53 34 9 2 347 340 317 282 263 15 29 340 359 49 15 18 299 292 338 71 345 29 23 316 322 356 285 285 357 352 29 28 48 77 57 28 347 351 35 14 9 12 75 73 349 13 119 187 145 134 169 185 148 177 203 154 135 120 101 106 82 70 69 69 107 111 114 123 116 126 113 98 96 98 98 97
255 279 286 301 306 316 317 303 286 269 247 121 51 20 352 8 358 344 331 292 247 111 134 240 333 57 38 282 259 300 51 131 34 26 5 333 333 325 316 33 9 356 33 33 40 57 52 29 341 11 55 32 17 17 86 92 19 15 99 187 139 138 169 178 175 186 182 157 169 164 120 82 94 118 159 181 127 120 119 126 125 126 114 110 120 118 113 109
240 267 283 299 315 326 317 304 287 234 218 66 41 0 355 10 357 354 330 278 235 107 156 181 247 32 42 266 277 340 320 157 54 15 337 348 314 294 314 2 70 19 15 27 41 19 39 32 346 11 60 48 46 48 71 99 141 103 41 75 131 139 164 172 178 183 185 200 192 191 136 86 111 133 145 145 135 125 123 124 122 120 129 139 137 129 129 113
232 254 280 298 329 334 320 321 329 300 256 64 31 347 6 8 349 357 311 260 81 45 199 101 51 1 30 328 311 315 300 9 19 51 10 350 305 271 294 333 52 74 15 1 90 13 24 35 359 9 53 54 55 49 39 63 97 97 131 163 133 138 157 176 192 178 206 255 187 171 116 124 149 142 139 142 144 138 136 141 159 201 196 156 139 140 133 101
224 243 270 295 328 328 318 316 319 323 36 45 2 348 13 0 344 349 300 306 72 312 258 71 62 269 262 234 293 3 55 7 323 71 51 330 310 296 289 17 29 62 21 339 87 65 26 31 13 9 39 56 50 30 45 73 92 114 141 121 114 139 150 161 218 187 4 296 196 157 138 137 130 139 146 147 145 138 140 151 161 173 178 151 137 132 117 103
218 234 255 293 303 305 312 309 308 339 27 16 345 353 358 336 323 316 286 304 61 283 113 77 155 182 250 232 194 46 68 13 347 45 32 177 100 306 326 42 2 71 52 10 51 76 47 42 29 17 37 63 67 40 48 77 94 126 126 108 112 150 148 146 217 42 35 314 210 167 167 165 112 143 159 156 151 146 146 147 150 160 163 148 140 137 130 123
212 224 240 272 281 306 312 294 284 332 4 354 346 340 325 313 302 270 284 264 96 66 140 245 156 166 251 243 81 57 77 43 20 321 171 113 141 265 336 8 287 75 76 57 66 85 122 106 73 38 29 47 86 73 66 85 102 131 128 122 139 145 141 161 148 74 57 308 260 224 194 159 127 156 171 156 155 160 154 145 149 160 155 145 151 148 134 120
208 218 227 240 261 304 306 293 315 356 355 347 338 319 295 317 294 273 321 95 148 15 195 194 62 302 295 359 48 40 74 57 19 305 142 128 163 158 115 263 291 71 97 110 102 149 148 113 100 69 19 328 88 90 94 111 125 135 123 124 139 113 93 156 128 104 86 308 254 222 147 96 107 159 178 150 148 166 165 151 154 157 147 140 135 124 122 117
206 216 223 231 254 280 285 311 346 345 342 339 325 304 293 19 252 249 35 166 236 316 9 25 52 40 356 1 53 35 20 35 23 350 1 42 80 61 47 351 9 60 311 5 136 161 101 75 98 104 61 346 18 99 131 134 142 152 143 131 100 63 77 159 168 186 182 241 233 183 122 86 52 136 161 140 142 168 166 153 158 154 150 140 122 130 173 128
208 218 227 234 249 262 272 298 323 327 331 328 305 271 124 292 250 240 38 95 114 54 11 347 67 62 358 313 40 44 10 12 19 20 341 319 352 67 68 37 2 342 350 1 101 133 86 85 59 50 101 0 344 340 135 126 161 185 176 148 122 216 215 164 195 214 203 212 201 175 146 129 123 132 145 144 151 167 161 159 158 135 127 131 136 154 157 95
211 218 230 239 246 252 264 282 303 317 321 311 284 241 199 274 281 112 43 63 99 145 119 346 239 95 18 9 45 29 24 54 18 339 353 334 15 48 62 56 13 350 343 351 55 338 92 99 37 8 39 5 352 7 2 313 240 208 202 189 202 256 9 55 190 221 227 150 156 170 175 174 139 133 147 149 147 152 152 148 138 126 119 107 130 116 74 80
210 219 233 246 248 250 257 269 282 299 308 295 266 250 231 273 339 51 35 36 64 116 85 292 267 248 141 108 90 76 11 31 3 356 40 46 39 26 16 26 15 1 351 348 359 327 86 92 64 43 43 10 2 15 340 317 310 21 291 270 285 308 348 116 164 195 300 99 124 148 144 107 121 141 166 156 142 151 156 160 163 152 137 96 51 52 59 61
206 213 228 243 244 243 241 246 257 270 292 284 254 266 221 208 347 15 7 1 6 1 350 242 299 344 112 115 101 108 80 345 289 87 79 73 55 30 22 33 6 354 359 345 333 349 69 87 84 87 76 52 23 318 345 352 350 351 308 353 54 315 325 101 158 203 291 183 117 123 115 115 131 154 170 160 153 161 171 186 169 121 88 65 59 58 56 59
200 196 216 234 226 220 218 226 255 259 266 273 252 274 274 216 28 15 9 1 23 352 319 328 30 346 6 68 73 88 84 260 257 94 99 98 55 10 14 53 22 353 358 347 344 20 22 72 86 65 67 71 61 264 287 358 333 327 338 14 22 282 319 44 151 195 266 97 97 138 138 140 155 164 168 167 163 164 180 192 136 96 73 115 94 71 51 72
216 208 220 228 199 187 204 214 257 258 251 262 243 248 275 7 44 30 10 7 29 317 315 10 49 344 343 13 50 35 354 316 41 41 44 71 44 358 358 40 38 14 356 332 332 22 347 22 97 46 40 105 150 238 236 183 347 338 332 345 337 312 20 347 330 332 329 50 80 116 120 129 150 142 171 177 165 165 188 193 135 127 169 154 134 151 107 86
252 239 209 192 165 169 192 200 250 257 243 253 251 238 264 49 63 49 18 4 347 331 344 28 36 14 7 1 39 39 4 14 47 39 18 27 36 15 8 16 19 29 9 321 331 14 335 314 101 57 69 142 184 317 349 70 96 320 268 204 4 351 347 338 332 314 332 9 58 98 99 82 85 143 180 173 156 174 195 185 150 162 176 151 124 95 88 83
251 249 169 158 164 166 174 208 246 244 232 250 275 308 107 92 82 67 24 334 329 348 354 7 2 31 41 30 38 31 22 45 51 45 41 38 46 48 39 14 346 9 2 300 335 23 333 311 82 95 95 112 44 22 6 5 16 356 347 12 6 349 320 315 305 301 334 358 341 57 97 80 71 107 132 126 143 183 196 156 158 199 197 105 44 56 67 58
234 241 154 159 167 161 173 221 234 233 235 244 264 279 97 75 93 105 94 299 335 22 334 355 28 45 29 30 38 22 26 55 54 56 55 42 43 48 33 359 328 342 339 304 2 44 340 306 335 81 76 45 44 29 1 360 6 5 14 1 353 3 349 321 338 341 354 359 346 35 100 84 51 50 92 112 143 168 168 164 170 218 288 63 63 69 66 20
248 230 138 157 163 161 187 227 224 227 240 246 358 68 80 51 105 122 147 197 72 52 310 7 38 41 26 20 28 33 37 42 44 57 67 57 50 40 23 6 336 324 324 328 68 53 358 297 324 65 71 65 71 54 38 49 347 358 37 9 356 13 356 350 11 349 343 2 350 67 115 88 25 356 49 95 107 126 150 158 145 258 351 51 59 84 93 55
249 148 136 164 167 172 207 239 229 223 213 99 71 87 123 184 146 146 169 153 85 45 18 44 37 41 36 3 1 37 45 20 19 54 73 71 60 47 36 12 339 327 333 6 50 36 343 315 338 79 113 102 100 94 87 89 307 35 60 20 6 29 6 354 349 317 330 17 353 324 97 89 11 347 31 82 92 92 114 122 104 318 40 51 351 83 137 153
234 137 141 166 168 188 222 235 231 215 119 95 98 105 123 34 73 164 159 66 60 92 78 54 51 65 54 346 7 42 48 27 27 54 70 71 63 56 52 25 356 6 26 17 18 359 330 3 359 342 128 130 135 122 110 106 63 46 46 26 26 32 5 333 303 280 289 25 355 351 87 103 91 43 16 61 115 112 111 107 83 355 74 110 283 296 139 120
242 132 133 156 165 200 245 272 269 216 119 115 121 125 128 62 15 46 101 83 51 61 79 62 66 70 41 326 67 59 60 62 50 82 98 88 83 77 65 50 26 36 54 20 348 328 330 36 17 354 25 53 63 79 48 22 70 80 56 37 30 27 8 339 326 329 359 33 27 26 66 104 120 120 117 2 90 110 126 127 131 261 237 198 207 317 20 60
253 145 143 154 170 212 245 268 277 175 139 146 152 168 168 143 77 51 81 94 75 60 59 66 73 58 15 21 67 68 66 59 35 66 94 85 77 64 66 69 58 56 56 10 329 308 323 68 48 20 35 40 40 54 13 343 9 66 63 49 34 27 16 358 13 26 359 15 58 34 20 67 125 118 108 95 88 80 141 154 186 225 243 232 152 141 213 262
261 169 158 160 180 226 238 238 247 130 147 161 163 171 169 153 131 98 47 103 108 91 50 37 41 56 49 39 43 55 61 58 44 41 63 91 98 102 105 89 78 86 152 259 283 285 316 70 59 36 46 43 37 47 16 356 22 33 31 45 41 31 25 18 31 27 354 4 74 43 10 349 6 41 41 48 73 177 237 214 215 201 200 227 185 174 230 242
260 182 152 153 190 219 224 210 182 144 154 166 186 180 168 156 144 155 181 131 128 121 69 45 46 71 68 37 31 42 37 48 53 26 10 50 94 135 132 98 92 143 193 308 354 327 349 55 50 40 76 72 50 46 20 12 39 24 8 54 42 30 38 33 28 28 15 21 46 32 12 349 347 30 51 33 24 359 338 332 268 205 200 220 206 196 229 245
265 172 128 133 240 236 132 135 133 140 157 184 203 179 172 165 159 161 141 130 140 128 110 132 101 82 59 356 8 48 36 38 51 23 5 22 28 6 72 81 87 106 80 30 29 12 2 39 21 346 102 100 72 63 29 338 338 287 115 86 60 33 34 27 38 40 17 9 35 358 358 25 21 39 57 38 18 350 336 331 309 282 219 211 210 206 224 239
289 329 105 164 232 34 71 85 123 151 161 196 189 175 178 167 158 150 133 142 159 117 120 152 110 89 55 7 23 52 56 43 47 48 12 360 8 9 26 37 42 81 89 69 40 357 338 51 11 272 240 125 105 97 151 282 317 317 331 79 102 48 19 1 46 39 353 345 26 339 327 58 68 45 36 38 50 340 319 323 320 305 265 230 231 230 230 235
310 298 282 220 181 135 131 160 188 188 174 182 183 172 171 164 156 143 127 137 154 142 159 148 108 96 75 42 45 56 58 15 16 79 94 318 4 3 3 4 350 35 105 97 6 298 286 264 221 260 276 123 119 113 177 213 231 267 311 82 98 10 23 41 30 31 21 10 352 319 346 56 59 30 11 9 56 23 322 323 314 308 302 284 277 284 280 284
331 277 264 264 167 156 186 190 195 201 183 170 174 168 172 172 154 134 111 99 123 133 122 114 116 143 169 103 75 57 46 355 6 53 173 256 345 327 345 22 1 1 55 62 353 344 340 318 290 304 318 118 116 98 273 243 227 224 38 52 33 6 17 29 359 12 64 44 321 327 18 21 356 1 21 15 5 347 330 333 352 2 357 349 347 345 338 342
Height
785 784 783 782 782 781 780 780 779 777 777 777 776 774 773 772 772 771 771 770 769 768 767 767 766 765 765 765 764 764 764 764 764 763 763 761 759 760 760 760 760 759 759 758 758 756 753 753 752 751 751 750 752 749 746 745 742 749 759 768 773 765 761 756 749 758 768 768 765 763 762 769 776 775 772 776 780 785 791 793 793 795 796 799 802 802 801 801
785 784 783 783 782 781 780 779 778 778 777 776 774 773 772 772 772 771 771 769 769 768 767 766 766 766 765 765 766 765 764 764 763 761 760 760 760 761 761 760 760 759 759 758 756 752 750 751 749 749 750 751 751 746 746 745 744 752 759 767 770 764 757 748 747 755 759 766 770 766 767 771 776 778 777 784 791 792 800 803 798 799 800 801 802 804 804 802
785 784 783 783 782 781 780 779 779 779 777 775 773 772 773 773 773 771 771 769 768 768 767 766 766 766 766 766 766 766 766 764 761 760 759 760 761 761 761 761 760 759 759 757 755 749 747 747 746 747 748 750 748 745 748 747 747 750 758 768 764 758 758 749 748 756 759 763 771 775 773 774 777 778 779 787 794 796 805 808 803 805 805 804 805 805 806 804
785 784 784 782 782 781 780 779 779 778 775 774 773 773 774 773 773 771 770 769 768 767 767 766 766 766 766 766 766 767 766 765 762 760 760 760 761 761 761 761 759 759 758 756 753 748 745 744 744 745 746 750 746 745 751 749 748 749 757 769 761 753 757 753 749 754 761 763 771 779 781 784 783 779 781 787 796 800 802 804 803 806 806 805 806 805 806 807
785 785 784 783 782 781 780 780 779 776 774 773 774 774 774 773 772 770 769 768 767 767 766 766 766 766 766 766 767 767 768 771 766 759 761 761 761 762 761 761 760 759 757 756 753 746 745 743 742 745 745 748 747 749 753 745 744 750 755 759 752 749 750 749 751 757 765 768 772 781 788 791 786 787 791 791 803 808 803 801 801 802 804 804 805 806 807 807
785 784 783 783 782 781 781 779 777 775 774 774 774 774 773 772 770 769 768 768 767 767 766 766 766 766 767 766 767 768 770 772 764 758 762 761 761 762 761 761 759 758 756 755 751 746 745 741 744 748 743 745 750 753 751 742 742 752 755 750 746 746 746 748 756 763 769 773 779 787 790 788 791 799 800 800 813 815 804 800 800 801 803 805 806 807 807 808
785 784 784 783 782 781 780 778 776 775 775 775 775 774 772 771 769 768 767 767 767 767 766 766 766 767 767 766 768 768 766 765 759 759 762 761 762 762 761 761 758 758 756 753 748 744 743 742 745 744 742 747 749 748 746 741 743 750 753 749 744 747 752 755 762 769 773 778 783 788 790 792 799 807 807 812 820 817 807 801 801 803 804 805 807 807 808 808
785 784 783 782 782 781 779 777 776 775 776 776 775 773 771 769 768 767 766 767 766 766 767 766 767 767 767 768 768 765 763 761 759 760 761 761 762 761 761 760 758 758 755 751 744 741 742 742 741 740 745 747 742 744 743 742 745 745 747 746 747 754 758 761 768 774 777 781 783 786 794 799 802 808 817 822 820 816 809 805 805 805 806 807 808 807 808 809
784 783 783 782 782 780 779 777 776 777 776 775 774 772 770 768 767 767 766 766 766 766 766 765 767 767 767 767 766 766 764 760 759 761 760 761 761 760 761 759 758 756 752 747 741 738 740 741 740 739 745 744 740 744 744 748 750 743 743 745 752 760 759 763 772 776 779 782 784 789 798 803 801 807 825 829 823 819 812 810 809 806 808 808 808 809 808 809
784 783 783 782 781 780 778 777 777 777 776 775 773 771 770 768 767 767 766 766 766 766 765 766 767 766 767 766 765 768 764 759 760 761 760 761 761 760 760 757 756 753 748 743 738 737 736 738 737 731 737 740 740 745 744 748 746 740 743 746 753 761 760 764 773 779 784 787 787 792 801 804 799 806 828 834 826 822 816 812 810 807 809 809 809 811 810 812
783 782 783 782 781 779 778 778 778 777 776 774 772 771 769 768 768 767 766 766 765 765 766 766 767 767 767 766 765 766 762 758 760 759 759 760 760 759 758 756 753 751 748 741 738 738 736 735 732 731 738 740 739 744 742 740 741 743 746 749 754 759 762 766 774 781 786 791 788 788 797 802 802 809 824 829 824 820 815 812 810 809 810 809 811 812 812 813
783 783 783 782 780 779 779 779 778 777 775 773 771 770 769 769 768 768 767 766 765 765 765 766 767 767 766 765 762 761 759 758 759 757 759 758 758 758 756 755 752 751 749 743 740 740 739 736 735 741 744 741 743 749 742 736 745 750 746 752 758 761 769 770 772 777 780 791 786 779 799 811 812 818 822 821 821 820 816 812 811 811 810 810 812 813 815 816
783 783 782 781 780 780 780 779 778 776 774 772 771 770 769 769 768 768 767 766 766 765 766 766 766 766 768 765 759 759 758 757 758 757 758 757 756 755 754 753 752 750 749 746 743 741 742 739 737 740 739 741 747 747 739 735 744 750 747 755 763 770 778 771 769 774 779 788 778 779 817 830 819 821 822 819 820 822 820 816 814 812 811 813 815 817 818 820
783 782 781 781 781 781 780 779 778 775 773 771 770 770 769 769 768 768 767 767 766 766 766 766 766 767 768 763 757 758 758 757 758 757 757 756 755 752 750 750 750 749 748 746 745 742 742 738 734 734 735 738 741 740 742 742 745 750 754 759 768 783 785 768 766 774 782 788 773 783 826 836 823 822 822 822 823 822 822 821 816 813 815 817 819 822 824 825
783 782 781 782 782 781 780 779 777 774 772 771 770 770 769 769 769 768 768 767 766 767 766 765 765 766 765 760 755 756 757 757 756 755 754 754 753 749 746 747 747 747 747 746 744 743 742 739 738 740 740 737 739 748 754 753 751 752 765 770 767 783 786 766 766 773 781 787 774 788 829 838 826 823 823 828 831 827 827 825 819 815 818 820 821 826 831 832
782 782 782 782 782 781 780 778 776 774 772 771 770 770 770 769 769 768 768 767 767 767 766 766 763 764 767 761 754 754 756 756 754 752 753 752 752 748 746 747 746 746 746 745 743 743 741 740 741 741 743 745 749 759 765 769 768 760 771 781 769 778 789 776 772 772 775 785 782 791 827 843 835 830 830 833 836 833 829 825 820 819 818 818 821 823 826 828
782 782 782 782 782 781 780 778 776 773 772 771 770 770 770 769 768 768 767 767 768 766 765 764 759 762 764 756 755 756 752 752 752 751 751 752 752 750 748 747 745 744 744 744 744 743 741 743 749 750 753 757 754 761 782 796 792 775 776 787 777 776 790 787 779 774 771 784 793 798 820 841 842 839 837 835 836 834 830 827 825 823 821 820 821 821 822 823
782 783 783 782 782 781 779 777 775 773 772 771 770 770 770 769 768 768 767 767 767 766 767 763 760 771 770 757 755 755 748 750 751 750 750 751 751 751 750 747 744 743 746 748 747 745 746 752 760 766 771 771 762 769 798 808 796 787 786 792 790 783 790 793 784 778 775 783 799 810 824 837 839 838 837 836 837 836 833 829 826 823 822 822 821 821 822 823
783 783 783 782 782 780 779 776 775 773 772 771 771 770 769 769 768 766 765 766 769 771 770 762 760 771 771 756 751 750 748 750 750 748 748 748 749 750 748 746 744 746 753 761 757 749 753 767 776 780 782 777 768 770 784 790 785 786 787 790 797 798 801 800 786 777 776 784 801 816 826 831 832 832 834 837 837 838 837 831 828 826 822 822 822 822 823 824
783 783 783 783 781 779 778 776 775 773 772 772 770 770 771 771 772 770 765 764 764 761 759 755 752 756 757 751 747 749 749 748 747 746 747 748 748 747 746 745 748 752 757 764 762 751 755 776 782 778 776 769 766 765 765 773 777 780 785 793 801 806 811 806 792 781 775 785 803 813 821 826 828 830 830 833 836 837 838 835 832 829 825 824 825 825 826 827
783 783 783 783 781 779 777 776 774 773 772 772 770 771 770 771 777 776 768 763 756 751 753 751 749 752 753 750 747 747 749 748 745 744 747 748 746 751 751 749 757 763 758 755 758 757 761 774 774 768 767 764 764 764 764 773 779 779 786 797 805 808 812 810 803 791 778 789 806 807 817 826 826 833 833 829 833 835 833 833 833 831 828 828 827 829 830 829
784 783 783 783 781 779 777 775 774 773 771 771 770 768 766 767 772 770 768 769 760 751 751 749 748 751 751 750 748 746 749 753 751 746 746 747 747 753 754 752 761 763 755 753 764 776 777 773 769 763 762 763 762 762 766 774 778 781 784 794 805 806 809 813 806 794 784 799 814 806 818 832 826 832 837 830 830 832 830 830 832 831 829 828 829 830 830 831
784 783 783 783 781 780 777 775 774 772 771 770 768 767 767 768 768 765 767 774 767 753 749 750 750 752 752 751 748 747 751 755 758 752 746 748 749 749 753 755 760 760 758 759 767 781 785 774 765 760 759 763 765 765 771 777 778 783 789 799 808 804 808 814 805 795 789 797 809 808 822 840 835 833 835 831 830 831 831 830 830 830 828 827 828 829 830 831
783 783 784 782 781 780 777 776 774 772 771 768 768 769 769 769 768 767 767 771 770 757 750 750 749 752 754 751 749 751 754 755 758 755 748 750 751 749 751 753 759 763 762 761 762 771 778 769 759 758 762 766 771 771 773 784 790 788 789 797 805 806 809 812 804 798 794 793 799 810 829 843 845 846 841 833 831 832 831 830 831 830 827 826 828 829 830 830
783 784 784 782 782 780 778 777 773 772 770 767 770 771 770 770 768 768 771 778 776 761 754 753 751 753 752 751 749 747 752 755 754 753 747 749 753 754 752 749 757 767 763 759 763 768 771 765 758 760 767 769 774 776 775 791 805 799 791 790 796 804 807 808 804 800 806 810 802 808 834 849 847 847 844 835 832 833 831 830 830 828 826 827 829 830 830 829
784 784 783 783 782 780 779 776 771 771 769 768 772 771 771 771 770 768 774 788 784 766 761 759 758 758 753 753 748 745 759 761 750 748 748 749 750 752 757 752 752 765 763 759 767 771 768 765 762 764 770 772 775 779 776 785 804 808 796 788 792 801 805 807 807 809 820 819 800 797 826 853 854 843 837 834 832 833 832 831 831 830 828 828 829 830 829 828
784 784 784 783 782 781 779 776 773 771 769 772 773 772 773 771 771 771 781 804 797 770 763 761 759 759 755 753 746 752 773 766 750 750 748 750 747 746 759 758 754 763 759 761 778 779 769 770 771 767 770 775 780 784 778 778 797 807 794 787 794 801 805 807 807 814 820 811 800 800 814 845 861 846 833 832 834 834 834 835 834 832 830 828 828 828 826 827
784 784 784 783 783 782 780 778 776 771 771 774 773 773 774 772 774 776 797 824 802 766 763 761 755 754 751 749 747 754 766 760 761 761 746 749 752 749 759 759 759 765 757 763 785 782 772 777 779 773 774 781 784 782 776 777 794 799 789 788 795 799 804 807 806 810 813 813 816 812 811 838 857 844 830 831 834 838 837 836 836 834 831 828 827 827 825 826
784 784 784 784 783 782 780 780 778 774 774 774 775 776 774 773 774 781 810 824 790 762 764 761 756 757 752 750 751 754 757 758 766 761 745 749 753 751 759 758 758 764 760 764 779 779 776 776 775 775 779 783 782 778 773 779 791 790 786 792 798 800 801 806 810 810 815 827 830 815 810 835 853 842 833 834 835 839 837 833 833 832 831 830 828 827 826 825
784 784 785 784 783 782 781 780 777 777 776 776 777 776 774 776 781 803 826 813 781 768 764 758 760 761 756 757 759 758 760 762 760 755 751 754 753 751 755 754 752 760 766 768 774 777 773 769 770 774 779 777 774 776 776 780 786 784 787 798 803 804 802 805 809 812 828 843 832 812 805 823 846 843 833 833 834 834 833 831 830 828 827 828 826 825 824 823
784 784 785 784 783 783 782 779 777 778 778 777 778 774 776 782 795 823 824 789 775 775 764 761 763 759 759 764 768 764 762 764 759 759 760 758 758 758 761 762 758 766 776 775 776 776 770 772 774 773 774 770 769 778 780 779 782 784 790 798 806 813 813 814 818 822 843 852 828 811 808 818 841 842 828 825 827 827 828 828 828 827 825 824 822 821 821 820
784 784 785 784 784 783 782 781 778 779 779 778 778 774 783 803 814 819 799 775 782 781 767 768 766 763 765 766 769 768 767 768 763 763 766 764 766 766 770 775 771 781 791 783 778 777 774 777 775 772 772 768 772 782 784 782 784 789 795 802 820 839 839 838 839 837 846 846 822 808 815 827 836 831 821 821 823 822 822 823 823 822 822 821 820 821 818 817
784 784 784 784 784 783 783 782 780 781 780 778 779 776 793 824 823 798 779 777 786 776 766 769 765 765 770 769 772 771 770 773 767 766 768 766 769 769 770 772 769 781 791 782 780 784 786 783 775 775 777 772 775 784 790 791 789 792 800 809 826 842 847 848 846 842 843 838 819 807 817 837 839 825 817 818 820 820 819 819 819 818 819 820 819 819 817 816
783 784 784 783 783 782 782 782 781 782 780 778 782 784 805 828 808 780 777 777 772 767 766 770 767 768 772 773 776 772 773 777 769 767 770 768 775 778 776 774 771 775 780 781 784 787 797 800 787 783 783 777 778 781 784 786 784 784 784 792 807 813 823 839 843 846 843 827 815 814 824 841 842 828 817 815 816 818 817 817 817 818 819 819 817 817 817 818
783 784 784 783 783 782 781 782 782 782 781 780 784 795 818 829 801 780 782 773 767 769 767 767 767 771 774 773 773 770 775 780 771 770 775 776 784 787 783 782 778 777 783 791 790 782 793 803 789 780 779 778 782 778 774 780 786 782 773 784 800 794 798 819 827 828 826 819 816 819 825 827 827 823 815 814 817 817 818 818 817 820 820 818 819 818 819 821
783 783 784 783 782 781 781 782 781 781 781 782 793 804 812 812 793 781 779 771 771 773 771 771 770 773 777 773 774 773 773 777 774 775 781 783 787 788 785 786 782 780 786 793 792 784 794 800 784 778 780 777 782 779 773 782 791 786 782 789 791 778 781 806 817 809 808 822 822 817 825 826 825 828 818 814 821 820 819 818 816 820 821 820 822 822 823 825
783 783 783 781 780 780 780 781 781 782 782 785 799 804 791 782 776 774 773 771 772 772 775 782 780 779 780 777 778 775 773 776 773 776 784 787 791 791 785 785 784 782 782 786 788 784 792 800 785 779 786 779 776 779 775 776 782 788 792 787 778 777 780 792 812 814 813 825 821 811 825 833 833 835 822 815 823 822 819 817 815 820 823 822 824 824 824 825
782 781 781 778 777 779 779 781 781 780 782 789 798 793 778 773 772 771 771 770 772 774 779 786 783 781 782 782 782 775 773 778 776 778 786 790 795 793 787 787 785 782 780 782 788 782 785 800 791 778 785 782 773 780 784 776 773 781 785 778 781 801 803 795 807 819 818 824 821 812 822 833 832 831 823 819 822 821 818 815 816 820 821 821 822 822 823 826
781 781 780 776 776 778 779 781 780 780 786 795 795 785 774 774 773 770 771 772 774 778 782 783 781 781 782 781 782 778 776 779 780 785 791 794 798 793 787 791 788 783 781 780 787 785 782 799 802 782 777 780 778 785 794 789 779 775 776 775 781 795 802 799 801 807 811 821 821 816 828 837 828 819 817 817 817 818 818 815 816 819 818 818 819 820 825 828
780 781 779 774 775 779 778 779 781 784 790 791 786 779 773 774 774 772 772 773 776 780 783 782 779 782 783 779 779 779 778 780 782 787 792 793 798 796 790 792 791 786 783 779 784 787 785 797 804 788 777 785 793 795 797 797 793 789 789 791 791 789 792 796 794 791 800 816 818 820 837 838 816 805 810 812 813 815 815 816 818 818 817 817 819 822 827 829
778 782 780 773 775 777 777 783 785 785 788 784 777 774 773 773 774 775 775 773 774 776 777 778 778 781 784 782 781 780 778 782 783 788 794 794 799 804 796 792 792 788 786 786 786 790 795 799 800 795 791 797 801 795 791 793 794 795 798 800 798 797 801 809 811 796 791 805 810 817 840 838 810 802 807 808 811 813 813 816 819 818 817 818 820 824 828 830
779 784 779 773 776 776 778 786 785 780 782 780 773 772 774 773 774 776 776 772 774 774 773 776 779 782 785 784 782 781 783 787 788 790 796 797 799 804 797 790 790 788 788 791 789 789 796 799 799 798 798 799 797 791 789 791 789 791 797 798 797 801 807 818 826 813 798 801 800 805 833 837 813 803 804 805 808 810 812 816 818 818 819 820 822 825 828 831
779 780 776 774 775 774 782 791 784 777 778 774 769 771 773 773 774 775 774 773 776 777 777 779 780 783 787 785 782 783 787 792 792 790 794 798 799 798 794 791 790 789 790 795 794 792 795 800 803 801 797 796 794 791 789 789 789 795 801 799 800 804 806 810 816 812 809 811 806 812 837 840 817 806 806 806 808 810 813 816 818 820 820 821 824 825 827 830
773 772 773 775 775 775 784 792 785 779 778 774 774 777 773 772 773 774 776 777 777 779 783 784 782 784 787 784 782 784 788 795 797 791 793 800 800 795 792 792 792 792 797 802 800 799 802 806 809 811 812 813 811 806 803 798 796 803 805 802 802 803 805 808 806 806 813 815 810 822 842 836 816 809 809 807 808 813 815 816 818 821 822 824 825 825 826 829
772 772 773 773 774 777 782 783 778 778 781 781 784 784 781 779 775 770 774 779 778 779 785 785 782 783 784 782 783 784 784 793 798 793 793 798 798 794 792 793 794 795 799 801 798 798 804 807 811 820 829 833 832 828 822 811 803 806 807 805 805 805 808 811 810 815 823 817 813 827 838 829 816 812 812 810 810 814 816 817 819 820 822 823 824 825 827 828
775 778 781 778 775 777 778 773 770 775 781 786 790 788 786 787 781 772 774 781 782 780 784 785 782 784 787 785 788 789 786 788 792 791 793 797 799 796 792 793 796 797 800 800 797 798 802 805 810 818 824 828 829 825 816 808 807 811 811 810 809 809 808 810 817 828 828 821 825 832 829 825 820 813 812 812 812 815 816 817 819 820 821 822 823 825 827 828
776 778 781 782 783 782 778 772 770 775 779 784 790 788 786 788 786 781 779 781 783 783 786 787 785 789 794 792 793 795 791 790 793 794 794 796 797 796 792 792 796 799 801 799 796 798 805 810 812 814 816 816 816 814 810 808 811 814 813 813 813 811 811 815 824 828 823 825 838 833 823 826 822 812 812 814 814 816 816 816 818 818 820 821 822 824 826 827
776 774 771 774 781 783 780 775 772 776 779 782 785 786 787 788 790 790 784 781 782 784 791 795 791 790 794 793 796 799 797 798 801 800 797 795 796 796 794 793 794 797 798 798 795 798 808 815 812 811 814 813 809 811 811 810 812 813 812 814 813 812 815 820 823 822 820 830 838 828 822 827 821 812 815 816 815 816 816 815 815 815 817 819 820 824 826 826
772 772 769 770 777 777 775 772 772 777 781 782 784 786 787 789 790 787 783 785 788 786 790 799 797 793 793 791 793 800 803 807 811 807 802 800 798 797 798 799 796 793 796 800 799 799 809 816 812 810 814 813 810 812 812 811 813 812 809 810 812 813 815 817 818 818 819 824 825 820 822 825 819 814 816 816 816 816 814 814 814 814 816 818 819 822 824 824
775 775 774 775 777 775 774 775 777 781 783 784 787 787 784 787 788 784 781 788 795 791 789 796 797 794 795 794 794 800 802 803 808 807 803 804 803 800 801 802 798 794 798 803 802 801 808 817 813 809 814 816 812 811 812 812 814 814 810 808 809 813 815 815 817 818 821 823 821 820 824 825 818 814 814 815 816 816 816 816 816 815 815 816 817 819 820 821
775 773 771 775 780 779 779 779 779 783 786 787 788 786 784 786 785 784 783 782 787 791 790 792 795 796 797 797 799 802 799 796 799 799 799 802 802 800 799 798 796 797 800 803 804 802 806 812 808 806 816 819 811 811 812 810 811 816 815 811 810 811 814 815 816 817 821 826 825 824 828 827 818 813 814 815 814 816 818 817 816 816 813 813 815 816 817 819
775 772 768 772 781 781 780 780 779 783 786 784 783 783 784 784 780 783 791 786 780 783 784 786 793 796 798 802 803 800 796 793 793 792 791 792 792 792 794 794 794 798 801 804 806 804 805 810 807 808 818 816 807 809 811 811 821 827 820 813 811 811 812 815 815 814 816 821 826 828 827 822 815 813 816 817 816 818 818 816 817 817 815 815 816 816 818 819